Location: Newark
(47.5833°N, 8.1500°E)
Time: 08:58:31
(UTC+00:00)

Altair - Pass Details

Date: 27 October 2020
Orbit: 1502 x 1682 km, 47.2° (Epoch: 25 November)

Event Time Altitude Azimuth Distance (km) Brightness Sun altitude
Exits shadow 04:15:22 - 215° (SW) 4,592 9.7 -18.9°
Reaches altitude 10° 04:18:24 10° 209° (SSW) 3,668 9.2 -18.4°
Maximum altitude 04:26:54 43° 142° (SE) 2,066 8.5 -17.0°
Drops below altitude 10° 04:35:40 10° 75° (ENE) 3,794 10.8 -15.5°
Sets 04:39:00 0° 69° (ENE) 4,807 11.4 -14.9°
